093  
ASUS43 KDTX 010310  
RWRMI  
MICHIGAN HOURLY REGIONAL WEATHER ROUNDUP  
NATIONAL WEATHER SERVICE DETROIT/PONTIAC MI  
1100 PM EDT TUE SEP 30 2014  
 
NOTE: "FAIR" INDICATES FEW OR NO CLOUDS BELOW 12,000 FEET WITH NO  
SIGNIFICANT WEATHER AND/OR TO VISIBILITY
.  
 
MIZ047>049-052>055-059>063-066>070-074>076-081>083-010400-  
SOUTHEAST LOWER MICHIGAN  
 
CITY SKY/WX TMP DP RH WIND PRES REMARKS
 
ADRIAN CLOUDY 53 48 83 NE8 30.03S  
ALMA CLOUDY 52 48 88 NE3 30.06S  
ANN ARBOR CLOUDY 52 48 86 NW6 30.03R  
BAD AXE CLOUDY 55 55 100 N5 30.04R FOG  
CARO CLOUDY 53 52 97 N6 30.03S FOG  
DETROIT CITY PTCLDY 54 48 80 N6 30.03S  
DETROIT CLOUDY 53 49 86 N6 30.03R  
FLINT CLOUDY 54 49 83 NE12 30.04S  
GROSSE ILE CLOUDY 55 50 82 N5 30.00S  
HILLSDALE CLOUDY 53 51 92 CALM 30.03R  
HOWELL CLOUDY 51 49 93 NW3 30.04R FOG  
 
CITY SKY/WX TMP DP RH WIND PRES REMARKS
 
JACKSON CLOUDY 51 48 89 CALM 30.04R  
LAMBERTVILLE CLEAR 52 48 87 CALM 30.02S  
LANSING CLOUDY 51 47 86 NE5 30.05S  
LAPEER CLOUDY 51 50 97 N5 30.02F FOG  
MASON CLOUDY 50 48 90 CALM 30.05R  
MONROE CLOUDY 52 48 87 N5 30.01S  
MT. CLEMENS CLOUDY 53 52 99 N9 29.99S  
PONTIAC CLOUDY 52 48 86 N7 30.01S  
PORT HOPE N/A 57 56 96 NE18 30.02S  
PORT HURON CLOUDY 52 52 100 NW5 30.01S FOG  
TRI CITIES CLOUDY 52 48 86 NE12 30.05S  
TROY CLOUDY 54 49 84 N5 30.02F  
SAGINAW HB CLOUDY 54 54 100 N7 30.04S  

 
MIZ043>046-050>051-056>058-064>065-071>073-077>080-010400-  
SOUTHWEST LOWER MICHIGAN  
 
CITY SKY/WX TMP DP RH WIND PRES REMARKS
 
BATTLE CREEK MOCLDY 53 47 79 E6 30.03S  
BIG RAPIDS CLOUDY 52 52 99 E5 30.05R  
COLDWATER CLOUDY 55 50 82 E8 30.02R  
FREMONT CLOUDY 51 49 91 N3 30.04S  
GRAND RAPIDS CLOUDY 54 50 86 NE6 30.04S  
IONIA CLOUDY 53 48 85 E6 30.04S  
KALAMAZOO CLOUDY 54 49 83 CALM 30.03S  
LUDINGTON CLOUDY 49 47 93 CALM 30.06R  
MARSHALL CLOUDY 52 48 86 NE5 30.03R  
MOUNT PLEASANT CLOUDY 51 48 87 NE3 30.06R  
MUSKEGON CLOUDY 54 47 77 NE3 30.05R  
SOUTH HAVEN CLOUDY 54 51 90 CALM 30.04R  

 
MIZ016>042-010400-  
NORTHERN LOWER MICHIGAN  
 
CITY SKY/WX TMP DP RH WIND PRES REMARKS
 
ALPENA CLOUDY 51 50 96 CALM 30.07S FOG  
BEAVER ISLAND CLOUDY 55 49 81 E6 30.06F  
BELLAIRE CLOUDY 50 47 91 CALM 30.06F  
CADILLAC CLOUDY 49 48 96 E8 30.05S  
CHARLEVOIX CLOUDY 51 49 91 CALM 30.09R  
FRANKFORT CLOUDY 53 47 83 CALM 30.06R  
GAYLORD CLOUDY 48 46 93 CALM 30.06S  
GRAYLING CLOUDY 49 48 97 E7 30.06F  
HARBOR SPRINGS MOCLDY 49 47 92 NE3 30.06S  
HOUGHTON LAKE CLOUDY 48 46 93 NE6 30.06S  
OSCODA CLOUDY 50 50 100 N6 30.05S FOG  
PELLSTON MOCLDY 48 47 96 CALM 30.07F  
ROGERS CITY CLOUDY 52 50 93 CALM 30.08S  
TRAVERSE CITY CLOUDY 52 47 83 E3 30.05S  

 
MIZ007>008-015-010400-  
EASTERN UPPER MICHIGAN  
 
CITY SKY/WX TMP DP RH WIND PRES REMARKS
 
MACKINAC ISLAN CLOUDY 54 51 88 E8 30.06F  
NEWBERRY CLOUDY 47 45 91 N6 30.07F  
S. S. MARIE CLOUDY 54 47 77 E5 30.08S  
MUNISING N/A 49 44 83 CALM 30.06S  

 
MIZ004>006-011>014-085-010400-  
CENTRAL UPPER MICHIGAN  
 
CITY SKY/WX TMP DP RH WIND PRES REMARKS
 
MANISTIQUE CLOUDY 52 50 93 CALM 30.06S  
SAWYER-GWINN CLOUDY 44 41 90 E6 30.06S  

 
MIZ001>003-009>011-084-010400-  
WESTERN UPPER MICHIGAN  
 
CITY SKY/WX TMP DP RH WIND PRES REMARKS
 
IRON MOUNTAIN CLOUDY 46 43 89 CALM 30.05S  
HOUGHTON CLEAR 43 40 89 SE10 30.02F  
COPPER HARBOR N/A 45 37 73 S5 30.05S  

 
 
ABBREVIATIONS USED IN REMARKS  
TC - TEMPERATURE IN CELSIUS  
WCI - WIND CHILL INDEX  
HX - HEAT INDEX  
VSB - VISIBILITY  
 
CLICK HERE TO GO TO PREVIOUS BULLETINS.

The Nexlab MI Page Main Text Page